Location: Fort Collins
(40.5850°N, 105.0840°W)
Time: 15:45:30
(UTC-07:00)

Cosmos 2297 Rocket - Visible Passes

Search period start: 27 February 2017 00:00
Search period end: 09 March 2017 00:00
Orbit: 840 x 843 km, 71.0° (Epoch: 26 February)

Date Brightness Start Highest point End Pass type
(mag) Time Alt. Az. Time Alt. Az. Time Alt. Az.
27 Feb 5.1 04:01:48 10° NNE 04:03:32 11° NE 04:05:15 10° ENE visible
27 Feb 2.6 05:43:04 10° NNW 05:48:42 67° ENE 05:54:18 10° SSE visible
27 Feb 3.4 18:51:55 10° SE 18:55:48 19° E 18:56:25 19° E visible
27 Feb 2.8 20:33:46 10° SW 20:38:27 52° W 20:38:27 52° W visible
28 Feb 5.1 03:47:03 10° NNE 03:48:22 11° NE 03:49:40 10° ENE visible
28 Feb 2.7 05:27:59 10° NNW 05:33:36 63° ENE 05:39:10 10° SE visible
28 Feb 3.5 18:37:02 10° SE 18:40:44 18° E 18:44:26 10° ENE visible
28 Feb 2.6 20:18:38 10° SW 20:24:12 61° WNW 20:27:35 24° N visible
28 Feb 5.1 22:08:33 10° NW 22:09:29 10° NW 22:09:45 10° NW visible
01 Mar 5.2 03:32:33 10° NE 03:33:12 10° NE 03:33:51 10° NE visible
01 Mar 2.8 05:12:54 10° NNW 05:18:30 60° ENE 05:24:03 10° SE visible
01 Mar 3.6 18:22:10 10° SE 18:25:40 17° E 18:29:11 10° ENE visible
01 Mar 2.5 20:03:30 10° SW 20:09:06 64° WNW 20:14:44 10° NNE visible
01 Mar 5.1 21:52:51 10° WNW 21:54:19 11° NW 21:55:46 10° NNW visible
02 Mar 2.9 04:57:49 10° NNW 05:03:24 57° ENE 05:08:55 10° SE visible
02 Mar 2.5 19:48:23 10° SSW 19:54:00 68° WNW 19:59:39 10° NNE visible
02 Mar 5.1 21:37:19 10° WNW 21:39:09 11° NW 21:41:00 10° NNW visible
03 Mar 2.9 04:42:44 10° NNW 04:48:16 54° ENE 04:53:47 10° SE visible
03 Mar 2.4 19:33:17 10° SSW 19:38:54 71° WNW 19:44:33 10° NNE visible
03 Mar 5.1 21:21:51 10° WNW 21:24:00 12° NW 21:26:09 10° NNW visible
04 Mar 3.0 04:27:40 10° NNW 04:33:10 51° ENE 04:38:38 10° SE visible
04 Mar 2.4 19:18:09 10° SSW 19:23:48 75° WNW 19:29:28 10° NNE visible
04 Mar 5.1 21:06:26 10° WNW 21:08:51 13° NW 21:11:16 10° NNW visible
05 Mar 3.1 04:12:35 10° NNW 04:18:04 48° ENE 04:23:30 10° SE visible
05 Mar 3.3 05:57:24 10° NW 06:01:44 23° W 06:06:03 10° SSW visible
05 Mar 2.3 19:03:03 10° SSW 19:08:42 79° WNW 19:14:23 10° NNE visible
05 Mar 5.1 20:51:02 10° WNW 20:53:42 13° NW 20:56:22 10° NNW visible
06 Mar 3.2 03:57:31 10° NNW 04:02:57 46° ENE 04:08:20 10° SE visible
06 Mar 3.2 05:42:13 10° NW 05:46:40 24° WSW 05:51:06 10° SSW visible
06 Mar 2.3 18:47:57 10° SSW 18:53:36 83° WNW 18:59:17 10° NNE visible
06 Mar 5.0 20:35:40 10° WNW 20:38:33 14° NW 20:41:26 10° NNW visible
07 Mar 3.2 03:42:27 10° NNW 03:47:51 43° ENE 03:53:11 10° SE visible
07 Mar 3.1 05:27:02 10° NW 05:31:36 26° WSW 05:36:09 10° SSW visible
07 Mar 2.3 18:32:51 10° SSW 18:38:30 88° WNW 18:44:12 10° NNE visible
07 Mar 5.0 20:20:20 10° W 20:23:24 15° NW 20:26:28 10° NNW visible
08 Mar 3.3 03:27:24 10° N 03:32:44 41° ENE 03:38:02 10° SE visible
08 Mar 3.0 05:11:52 10° NW 05:16:31 27° WSW 05:21:11 10° SSW visible
08 Mar 2.3 18:17:46 10° SSW 18:23:25 88° ESE 18:29:06 10° NNE visible
08 Mar 5.0 20:05:01 10° W 20:08:15 15° NW 20:11:30 10° NNW visible
